{"data":{"norad_id":69564,"intl_designator":"2026-135U","name":"STARLINK-37932","alt_names":[],"object_type":"PAYLOAD","status":"ACTIVE","operator":null,"country":"US","launch_date":"2026-06-15","launch_site_code":"AFWTR","launch_vehicle":null,"mission":null,"orbit_class":"UNKNOWN","rcs_meters":null,"size_class":null,"mass_kg":null,"dimensions":null,"purposes":["comms"],"wikipedia_slug":null,"has_3d_model":false,"image_url":null,"decayed_at":null,"tle_current":{"epoch":"2026-09-19T07:52:48.685728Z","epoch_age_seconds":122919,"freshness":"FRESH","line1":"1 69564U 26135U   26262.32834127  .00018212  00000+0  56505-3 0  9992","line2":"2 69564  97.2855 290.0780 0000803 101.5424 258.5909 15.33446730 14821","mean_motion":15.3344673,"eccentricity":8.03e-5,"inclination_deg":97.2855,"raan_deg":290.078,"arg_perigee_deg":101.5424,"mean_anomaly_deg":258.5909,"bstar":0.00056505,"rev_number":1482,"period_min":93.906098713974,"perigee_km":464.98848011544,"apogee_km":466.08757432482,"semimajor_km":6843.6750272201,"source":"CELESTRAK","updated_at":"2026-09-20T09:00:44.245480Z"}}}